Home > Weather > Kriens > Past weeks

Flag for Switzerland Past Weather in Kriens, Lucerne, Switzerland — Yesterday and Last 2 Weeks

Now
67 °F

Mild.


Feels Like: 67 °F
Forecast: 54 / 88 °F
Wind: 3 mph from West

Location: Giswil

Current Time: Aug 24, 2016 at 10:07:39 PM

Latest Report: Aug 24, 2016 at 9:00 PM


Visibility: N/A

Pressure: 30.12 "Hg

Humidity: 91%

Dew Point: 65 °F

Location of KriensLocation

Past Weather in Kriens — Graph

°F

Kriens Temperature Yesterday

Maximum temperature yesterday: 78 °F (at 5:00 PM)
Minimum temperature yesterday: 49 °F (at 7:00 AM)
Average temperature yesterday: 62 °F

High & Low Weather Summary for the Past Weeks

 TemperatureHumidityPressure
High83 °F (Aug 14, 4:00 PM)100% (Aug 13, 5:00 AM)30.41 "Hg (Aug 13, 5:00 AM)
Low46 °F (Aug 11, 6:00 AM)46% (Aug 22, 2:00 PM)29.83 "Hg (Aug 17, 6:00 PM)
Average63 °F82%30.13 "Hg
* Reported Aug 9 8:00 PM — Aug 24 8:00 PM, Kriens, Weather by CustomWeather, © 2016

Note: Actual official high and low records may vary slightly from our data, if they occured in-between our weather recording intervals... More about our weather records

Advertising

Kriens Weather History for the Previous 24 Hours

Scroll right to see more
 ConditionsComfort  
Time TempWeatherWind HumidityBarometerVisibility
8:00 PM
Wed, Aug 24
72 °FMild.2 mph82%30.10 "HgN/A
7:00 PM79 °FWarm.3 mph68%30.07 "HgN/A
5:00 PM82 °FWarm.2 mph53%30.09 "HgN/A
4:00 PM81 °FWarm.3 mph53%30.09 "HgN/A
3:00 PM80 °FWarm.2 mph51%30.11 "HgN/A
2:00 PM78 °FWarm.2 mph57%30.12 "HgN/A
1:00 PM76 °FMild.2 mph53%30.15 "HgN/A
12:00 PM72 °FMild.2 mph66%30.17 "HgN/A
11:00 AM70 °FMild.2 mph70%30.20 "HgN/A
10:00 AM66 °FMild.2 mph79%30.22 "HgN/A
9:00 AM63 °FMild.1 mph92%30.23 "HgN/A
8:00 AM57 °FCool.1 mph99%30.25 "HgN/A
7:00 AM53 °FCool.2 mph99%30.25 "HgN/A
6:00 AM54 °FCool.1 mph99%30.24 "HgN/A
5:00 AM54 °FCool.1 mph99%30.24 "HgN/A
4:00 AM55 °FCool.No wind99%30.24 "HgN/A
3:00 AM56 °FCool.1 mph99%30.25 "HgN/A
2:00 AM56 °FCool.1 mph99%30.25 "HgN/A
1:00 AM57 °FCool.1 mph99%30.25 "HgN/A
12:00 AM58 °FCool.1 mph100%30.26 "HgN/A
11:00 PM
Tue, Aug 23
60 °FCool.1 mph96%30.26 "HgN/A
10:00 PM61 °FCool.2 mph96%30.27 "HgN/A
Weather by CustomWeather, © 2016

See weather overviewHow to use our weather pages